owner,sensor,date,latitude,longitude,vertical_datum,direction_of_sea_water_velocity,sea_water_speed,upward_sea_water_velocity,qcFlag 
TABS,ioos:station:wmo:42043:1,1998-07-01T00:00:00Z,28.9818,-94.9186,2.0,303.8163893,113.5252166,-99999.0,'11111222,11111222,99999999' 
TABS,ioos:station:wmo:42043:1,1998-07-01T00:30:00Z,28.9818,-94.9186,2.0,300.6854241,110.36236,-99999.0,'11111222,11111222,99999999' 
TABS,ioos:station:wmo:42043:1,1998-07-01T01:00:00Z,28.9818,-94.9186,2.0,296.8378119,112.8779872,-99999.0,'11111222,11111222,99999999' 
TABS,ioos:station:wmo:42043:1,1998-07-01T01:30:00Z,28.9818,-94.9186,2.0,292.2536242,119.6193718,-99999.0,'11111222,11111222,99999999' 
TABS,ioos:station:wmo:42043:1,1998-07-01T02:00:00Z,28.9818,-94.9186,2.0,284.0354892,121.6413174,-99999.0,'11111222,11111222,99999999' 
TABS,ioos:station:wmo:42043:1,1998-07-01T02:30:00Z,28.9818,-94.9186,2.0,275.5614966,141.4758644,-99999.0,'11111222,11111222,99999999' 
TABS,ioos:station:wmo:42043:1,1998-07-01T03:00:00Z,28.9818,-94.9186,2.0,262.89472,197.5972672,-99999.0,'11144222,11111222,99999999' 
TABS,ioos:station:wmo:42043:1,1998-07-01T03:30:00Z,28.9818,-94.9186,2.0,253.800926,245.1525413,-99999.0,'11144222,11111222,99999999' 
TABS,ioos:station:wmo:42043:1,1998-07-01T04:00:00Z,28.9818,-94.9186,2.0,251.9283493,267.5372417,-99999.0,'11144222,11111222,99999999' 
TABS,ioos:station:wmo:42043:1,1998-07-01T04:30:00Z,28.9818,-94.9186,2.0,249.2063519,290.8754931,-99999.0,'11144222,11111222,99999999' 
TABS,ioos:station:wmo:42043:1,1998-07-01T05:00:00Z,28.9818,-94.9186,2.0,247.3663003,310.914624,-99999.0,'11144222,11111222,99999999' 
TABS,ioos:station:wmo:42043:1,1998-07-01T05:30:00Z,28.9818,-94.9186,2.0,244.8985125,328.746683,-99999.0,'11144222,11111222,99999999' 
TABS,ioos:station:wmo:42043:1,1998-07-01T06:00:00Z,28.9818,-94.9186,2.0,243.0624621,338.7759161,-99999.0,'11144222,11111222,99999999' 
TABS,ioos:station:wmo:42043:1,1998-07-01T06:30:00Z,28.9818,-94.9186,2.0,241.5811096,345.9486627,-99999.0,'11144222,11111222,99999999' 
TABS,ioos:station:wmo:42043:1,1998-07-01T07:00:00Z,28.9818,-94.9186,2.0,240.8527485,352.7355453,-99999.0,'11144222,11111222,99999999' 
TABS,ioos:station:wmo:42043:1,1998-07-01T07:30:00Z,28.9818,-94.9186,2.0,239.6821037,355.6712422,-99999.0,'11144222,11111222,99999999' 
TABS,ioos:station:wmo:42043:1,1998-07-01T08:00:00Z,28.9818,-94.9186,2.0,238.2991001,359.8234928,-99999.0,'11144222,11111222,99999999' 
TABS,ioos:station:wmo:42043:1,1998-07-01T08:30:00Z,28.9818,-94.9186,2.0,237.1680478,364.6814271,-99999.0,'11144222,11111222,99999999' 
TABS,ioos:station:wmo:42043:1,1998-07-01T09:00:00Z,28.9818,-94.9186,2.0,236.8827064,364.6199065,-99999.0,'11144222,11111222,99999999' 
TABS,ioos:station:wmo:42043:1,1998-07-01T09:30:00Z,28.9818,-94.9186,2.0,237.2014763,364.1992559,-99999.0,'11144222,11111222,99999999' 
TABS,ioos:station:wmo:42043:1,1998-07-01T10:00:00Z,28.9818,-94.9186,2.0,237.3055565,364.1186171,-99999.0,'11144222,11111222,99999999' 
TABS,ioos:station:wmo:42043:1,1998-07-01T10:30:00Z,28.9818,-94.9186,2.0,237.3111863,364.4521118,-99999.0,'11144222,11111222,99999999' 
TABS,ioos:station:wmo:42043:1,1998-07-01T11:00:00Z,28.9818,-94.9186,2.0,237.8304184,363.2457989,-99999.0,'11144222,11111222,99999999' 
TABS,ioos:station:wmo:42043:1,1998-07-01T11:30:00Z,28.9818,-94.9186,2.0,237.0385946,367.5269494,-99999.0,'11144222,11111222,99999999' 
TABS,ioos:station:wmo:42043:1,1998-07-01T12:00:00Z,28.9818,-94.9186,2.0,236.4585418,365.931409,-99999.0,'11144222,11111222,99999999' 
TABS,ioos:station:wmo:42043:1,1998-07-01T12:30:00Z,28.9818,-94.9186,2.0,237.4737729,359.9721136,-99999.0,'11144222,11111222,99999999' 
TABS,ioos:station:wmo:42043:1,1998-07-01T13:00:00Z,28.9818,-94.9186,2.0,237.7409968,358.7311674,-99999.0,'11144222,11111222,99999999' 
TABS,ioos:station:wmo:42043:1,1998-07-01T13:30:00Z,28.9818,-94.9186,2.0,238.8000935,353.7891424,-99999.0,'11144222,11111222,99999999' 
TABS,ioos:station:wmo:42043:1,1998-07-01T14:00:00Z,28.9818,-94.9186,2.0,240.1700637,349.8639178,-99999.0,'11144222,11111222,99999999' 
TABS,ioos:station:wmo:42043:1,1998-07-01T14:30:00Z,28.9818,-94.9186,2.0,240.2608967,347.8306082,-99999.0,'11144222,11111222,99999999' 
TABS,ioos:station:wmo:42043:1,1998-07-01T15:00:00Z,28.9818,-94.9186,2.0,241.6153345,344.1433319,-99999.0,'11144222,11111222,99999999' 
TABS,ioos:station:wmo:42043:1,1998-07-01T15:30:00Z,28.9818,-94.9186,2.0,247.1909069,325.5463839,-99999.0,'11144222,11111222,99999999' 
TABS,ioos:station:wmo:42043:1,1998-07-01T16:00:00Z,28.9818,-94.9186,2.0,264.6659527,298.100688,-99999.0,'11144222,11111222,99999999' 
TABS,ioos:station:wmo:42043:1,1998-07-01T16:30:00Z,28.9818,-94.9186,2.0,268.2394181,300.8219407,-99999.0,'11144222,11111222,99999999' 
TABS,ioos:station:wmo:42043:1,1998-07-01T17:00:00Z,28.9818,-94.9186,2.0,272.5603438,300.2396238,-99999.0,'11144222,11111222,99999999' 
TABS,ioos:station:wmo:42043:1,1998-07-01T17:30:00Z,28.9818,-94.9186,2.0,277.84741,297.9600498,-99999.0,'11144222,11111222,99999999' 
TABS,ioos:station:wmo:42043:1,1998-07-01T18:00:00Z,28.9818,-94.9186,2.0,278.7954062,294.3105885,-99999.0,'11144222,11111222,99999999' 
TABS,ioos:station:wmo:42043:1,1998-07-01T18:30:00Z,28.9818,-94.9186,2.0,275.1121939,234.121156,-99999.0,'11144222,11111222,99999999' 
TABS,ioos:station:wmo:42043:1,1998-07-01T19:00:00Z,28.9818,-94.9186,2.0,276.0296791,239.7260778,-99999.0,'11144222,11111222,99999999' 
TABS,ioos:station:wmo:42043:1,1998-07-01T19:30:00Z,28.9818,-94.9186,2.0,282.6833816,160.8241465,-99999.0,'11133222,11111222,99999999' 
TABS,ioos:station:wmo:42043:1,1998-07-01T20:00:00Z,28.9818,-94.9186,2.0,296.205785,127.5388854,-99999.0,'11111222,11111222,99999999' 
TABS,ioos:station:wmo:42043:1,1998-07-01T20:30:00Z,28.9818,-94.9186,2.0,321.7384101,99.61939821,-99999.0,'11111222,11111222,99999999' 
TABS,ioos:station:wmo:42043:1,1998-07-01T21:00:00Z,28.9818,-94.9186,2.0,287.6783222,78.50723279,-99999.0,'11111222,11111222,99999999' 
TABS,ioos:station:wmo:42043:1,1998-07-01T21:30:00Z,28.9818,-94.9186,2.0,316.679958,82.74583313,-99999.0,'11111222,11111222,99999999' 
TABS,ioos:station:wmo:42043:1,1998-07-01T22:00:00Z,28.9818,-94.9186,2.0,288.5635046,1.413541651,-99999.0,'11133222,11111222,99999999' 
TABS,ioos:station:wmo:42043:1,1998-07-01T22:30:00Z,28.9818,-94.9186,2.0,264.9290714,8.372765374,-99999.0,'11133222,11111222,99999999' 
TABS,ioos:station:wmo:42043:1,1998-07-01T23:00:00Z,28.9818,-94.9186,2.0,305.156161,8.023590219,-99999.0,'11133222,11111222,99999999' 
TABS,ioos:station:wmo:42043:1,1998-07-01T23:30:00Z,28.9818,-94.9186,2.0,297.9878087,7.927067554,-99999.0,'11133222,11111222,99999999' 
TABS,ioos:station:wmo:42043:1,1998-07-02T00:00:00Z,28.9818,-94.9186,2.0,298.5052213,7.794927838,-99999.0,'11133222,11111222,99999999' 
TABS,ioos:station:wmo:42043:1,1998-07-07T12:30:00Z,28.9818,-94.9186,2.0,9.620989701,8.915391186,-99999.0,'11133222,11111222,99999999' 
TABS,ioos:station:wmo:42043:1,1998-07-07T13:00:00Z,28.9818,-94.9186,2.0,301.331694,8.019438883,-99999.0,'11133222,11111222,99999999' 
TABS,ioos:station:wmo:42043:1,1998-07-07T13:30:00Z,28.9818,-94.9186,2.0,304.4320036,9.214342082,-99999.0,'11133222,11111222,99999999' 
TABS,ioos:station:wmo:42043:1,1998-07-07T14:00:00Z,28.9818,-94.9186,2.0,337.4525332,8.553852933,-99999.0,'11133222,11111222,99999999' 
TABS,ioos:station:wmo:42043:1,1998-07-07T14:30:00Z,28.9818,-94.9186,2.0,286.0531294,8.064452864,-99999.0,'11133222,11111222,99999999' 
TABS,ioos:station:wmo:42043:1,1998-07-07T15:00:00Z,28.9818,-94.9186,2.0,343.2344907,8.250721181,-99999.0,'11133222,11111222,99999999' 
TABS,ioos:station:wmo:42043:1,1998-07-07T15:30:00Z,28.9818,-94.9186,2.0,340.6591223,8.997805288,-99999.0,'11133222,11111222,99999999' 
TABS,ioos:station:wmo:42043:1,1998-07-07T16:00:00Z,28.9818,-94.9186,2.0,358.8230683,7.301540933,-99999.0,'11133222,11111222,99999999' 
TABS,ioos:station:wmo:42043:1,1998-07-07T16:30:00Z,28.9818,-94.9186,2.0,0.000210459,6.56,-99999.0,'11133222,11111222,99999999' 
TABS,ioos:station:wmo:42043:1,1998-07-07T17:00:00Z,28.9818,-94.9186,2.0,0.000210459,7.3,-99999.0,'11133222,11111222,99999999' 
TABS,ioos:station:wmo:42043:1,1998-07-07T17:30:00Z,28.9818,-94.9186,2.0,357.6942491,7.456037822,-99999.0,'11133222,11111222,99999999' 
TABS,ioos:station:wmo:42043:1,1998-07-07T18:00:00Z,28.9818,-94.9186,2.0,358.7983802,7.151573253,-99999.0,'11133222,11111222,99999999' 
TABS,ioos:station:wmo:42043:1,1998-07-07T18:30:00Z,28.9818,-94.9186,2.0,0.000210459,7.6,-99999.0,'11133222,11111222,99999999' 
TABS,ioos:station:wmo:42043:1,1998-07-07T19:00:00Z,28.9818,-94.9186,2.0,357.6942491,7.456037822,-99999.0,'11133222,11111222,99999999' 
TABS,ioos:station:wmo:42043:1,1998-07-07T19:30:00Z,28.9818,-94.9186,2.0,12.54836951,9.619781702,-99999.0,'11133222,11111222,99999999' 
TABS,ioos:station:wmo:42043:1,1998-07-07T20:00:00Z,28.9818,-94.9186,2.0,15.03159749,10.33357634,-99999.0,'11111222,11111222,99999999' 
TABS,ioos:station:wmo:42043:1,1998-07-07T20:30:00Z,28.9818,-94.9186,2.0,8.877184618,9.655656373,-99999.0,'11133222,11111222,99999999' 
TABS,ioos:station:wmo:42043:1,1998-07-07T21:00:00Z,28.9818,-94.9186,2.0,5.781772535,8.834941992,-99999.0,'11133222,11111222,99999999' 
TABS,ioos:station:wmo:42043:1,1998-07-07T21:30:00Z,28.9818,-94.9186,2.0,0.000210459,9.24,-99999.0,'11133222,11111222,99999999' 
TABS,ioos:station:wmo:42043:1,1998-07-07T22:00:00Z,28.9818,-94.9186,2.0,7.218503741,10.66452062,-99999.0,'11111222,11111222,99999999' 
TABS,ioos:station:wmo:42043:1,1998-07-07T22:30:00Z,28.9818,-94.9186,2.0,9.016677579,9.507481265,-99999.0,'11133222,11111222,99999999' 
TABS,ioos:station:wmo:42043:1,1998-07-07T23:00:00Z,28.9818,-94.9186,2.0,11.72791884,8.068432314,-99999.0,'11133222,11111222,99999999' 
TABS,ioos:station:wmo:42043:1,1998-07-07T23:30:00Z,28.9818,-94.9186,2.0,2.811159854,6.117360542,-99999.0,'11133222,11111222,99999999' 
TABS,ioos:station:wmo:42043:1,1998-07-08T00:00:00Z,28.9818,-94.9186,2.0,0.000210459,6.71,-99999.0,'11133222,11111222,99999999' 
TABS,ioos:station:wmo:42043:1,1998-07-08T00:30:00Z,28.9818,-94.9186,2.0,358.8230683,7.301540933,-99999.0,'11133222,11111222,99999999' 
TABS,ioos:station:wmo:42043:1,1998-07-08T01:00:00Z,28.9818,-94.9186,2.0,0.000210459,7.15,-99999.0,'11133222,11111222,99999999' 
TABS,ioos:station:wmo:42043:1,1998-07-08T01:30:00Z,28.9818,-94.9186,2.0,357.6942491,7.456037822,-99999.0,'11133222,11111222,99999999' 
TABS,ioos:station:wmo:42043:1,1998-07-08T02:00:00Z,28.9818,-94.9186,2.0,0.000210459,6.71,-99999.0,'11133222,11111222,99999999' 
TABS,ioos:station:wmo:42043:1,1998-07-08T02:30:00Z,28.9818,-94.9186,2.0,357.440262,6.71670306,-99999.0,'11133222,11111222,99999999' 
TABS,ioos:station:wmo:42043:1,1998-07-08T03:00:00Z,28.9818,-94.9186,2.0,356.5435994,7.46357823,-99999.0,'11133222,11111222,99999999' 
TABS,ioos:station:wmo:42043:1,1998-07-08T03:30:00Z,28.9818,-94.9186,2.0,358.8230683,7.301540933,-99999.0,'11133222,11111222,99999999' 
TABS,ioos:station:wmo:42043:1,1998-07-08T04:00:00Z,28.9818,-94.9186,2.0,0.000210459,7.75,-99999.0,'11133222,11111222,99999999' 
TABS,ioos:station:wmo:42043:1,1998-07-08T04:30:00Z,28.9818,-94.9186,2.0,357.8254714,7.90569415,-99999.0,'11133222,11111222,99999999' 
TABS,ioos:station:wmo:42043:1,1998-07-08T05:00:00Z,28.9818,-94.9186,2.0,359.022564,8.79127977,-99999.0,'11133222,11144222,99999999' 
TABS,ioos:station:wmo:42043:1,1998-07-08T05:30:00Z,28.9818,-94.9186,2.0,1.048184654,8.201371836,-99999.0,'11133222,11111222,99999999' 
TABS,ioos:station:wmo:42043:1,1998-07-08T06:00:00Z,28.9818,-94.9186,2.0,358.8914009,7.751451477,-99999.0,'11133222,11111222,99999999' 
TABS,ioos:station:wmo:42043:1,1998-07-08T06:30:00Z,28.9818,-94.9186,2.0,357.9049628,8.20548597,-99999.0,'11133222,11111222,99999999' 
TABS,ioos:station:wmo:42043:1,1998-07-08T07:00:00Z,28.9818,-94.9186,2.0,358.9522363,8.201371836,-99999.0,'11133222,11111222,99999999' 
TABS,ioos:station:wmo:42043:1,1998-07-08T07:30:00Z,28.9818,-94.9186,2.0,1.922161923,8.945032141,-99999.0,'11133222,11111222,99999999' 
TABS,ioos:station:wmo:42043:1,1998-07-08T08:00:00Z,28.9818,-94.9186,2.0,1.048184654,8.201371836,-99999.0,'11133222,11111222,99999999' 
TABS,ioos:station:wmo:42043:1,1998-07-08T08:30:00Z,28.9818,-94.9186,2.0,0.945597352,9.09123754,-99999.0,'11133222,11111222,99999999' 
TABS,ioos:station:wmo:42043:1,1998-07-08T09:00:00Z,28.9818,-94.9186,2.0,3.905118771,8.810454018,-99999.0,'11133222,11111222,99999999' 
TABS,ioos:station:wmo:42043:1,1998-07-08T09:30:00Z,28.9818,-94.9186,2.0,0.000210459,8.64,-99999.0,'11133222,11111222,99999999' 
TABS,ioos:station:wmo:42043:1,1998-07-08T10:00:00Z,28.9818,-94.9186,2.0,0.994826606,8.641301985,-99999.0,'11133222,11111222,99999999' 
TABS,ioos:station:wmo:42043:1,1998-07-08T10:30:00Z,28.9818,-94.9186,2.0,2.023949566,8.4952987,-99999.0,'11133222,11111222,99999999' 
TABS,ioos:station:wmo:42043:1,1998-07-08T11:00:00Z,28.9818,-94.9186,2.0,3.97269711,8.660808276,-99999.0,'11133222,11111222,99999999' 
TABS,ioos:station:wmo:42043:1,1998-07-08T11:30:00Z,28.9818,-94.9186,2.0,1.859805449,9.244868847,-99999.0,'11133222,11111222,99999999' 
TABS,ioos:station:wmo:42043:1,1998-07-08T12:00:00Z,28.9818,-94.9186,2.0,2.834314848,9.101131798,-99999.0,'11133222,11111222,99999999' 
TABS,ioos:station:wmo:42043:1,1998-07-08T12:30:00Z,28.9818,-94.9186,2.0,0.994826606,8.641301985,-99999.0,'11133222,11111222,99999999' 
TABS,ioos:station:wmo:42043:1,1998-07-08T13:00:00Z,28.9818,-94.9186,2.0,3.656303626,9.409149802,-99999.0,'11133222,11111222,99999999' 
TABS,ioos:station:wmo:42043:1,1998-07-08T13:30:00Z,28.9818,-94.9186,2.0,0.000210459,7.9,-99999.0,'11133222,11111222,99999999' 
TABS,ioos:station:wmo:42043:1,1998-07-08T14:00:00Z,28.9818,-94.9186,2.0,0.887985152,9.68116212,-99999.0,'11133222,11111222,99999999' 
TABS,ioos:station:wmo:42043:1,1998-07-08T14:30:00Z,28.9818,-94.9186,2.0,357.2565119,9.400776564,-99999.0,'11133222,11111222,99999999' 
TABS,ioos:station:wmo:42043:1,1998-07-08T15:00:00Z,28.9818,-94.9186,2.0,353.6801255,9.447417637,-99999.0,'11133222,11111222,99999999' 
TABS,ioos:station:wmo:42043:1,1998-07-08T15:30:00Z,28.9818,-94.9186,2.0,355.1880334,8.821094036,-99999.0,'11133222,11111222,99999999' 
TABS,ioos:station:wmo:42043:1,1998-07-08T16:00:00Z,28.9818,-94.9186,2.0,355.1880334,8.821094036,-99999.0,'11133222,11111222,99999999' 
TABS,ioos:station:wmo:42043:1,1998-07-08T16:30:00Z,28.9818,-94.9186,2.0,354.6704456,9.581424737,-99999.0,'11133222,11111222,99999999' 
TABS,ioos:station:wmo:42043:1,1998-07-08T17:00:00Z,28.9818,-94.9186,2.0,355.628674,9.708243919,-99999.0,'11133222,11111222,99999999' 
TABS,ioos:station:wmo:42043:1,1998-07-08T17:30:00Z,28.9818,-94.9186,2.0,359.1124358,9.68116212,-99999.0,'11133222,11144222,99999999' 
TABS,ioos:station:wmo:42043:1,1998-07-08T18:00:00Z,28.9818,-94.9186,2.0,352.6616213,9.316313649,-99999.0,'11133222,11111222,99999999' 
TABS,ioos:station:wmo:42043:1,1998-07-08T18:30:00Z,28.9818,-94.9186,2.0,355.9419315,10.45621825,-99999.0,'11111222,11111222,99999999' 
TABS,ioos:station:wmo:42043:1,1998-07-08T19:00:00Z,28.9818,-94.9186,2.0,353.7787125,9.596520203,-99999.0,'11133222,11111222,99999999' 
TABS,ioos:station:wmo:42043:1,1998-07-08T19:30:00Z,28.9818,-94.9186,2.0,0.000210459,10.58,-99999.0,'11111222,11111222,99999999' 
TABS,ioos:station:wmo:42043:1,1998-07-08T20:00:00Z,28.9818,-94.9186,2.0,6.001298063,11.38237673,-99999.0,'11111222,11111222,99999999' 
TABS,ioos:station:wmo:42043:1,1998-07-08T20:30:00Z,28.9818,-94.9186,2.0,3.838409565,11.05479534,-99999.0,'11111222,11111222,99999999' 
TABS,ioos:station:wmo:42043:1,1998-07-08T21:00:00Z,28.9818,-94.9186,2.0,359.0850224,9.391198007,-99999.0,'11133222,11144222,99999999' 
TABS,ioos:station:wmo:42043:1,1998-07-08T21:30:00Z,28.9818,-94.9186,2.0,0.945597352,9.09123754,-99999.0,'11133222,11111222,99999999' 
TABS,ioos:station:wmo:42043:1,1998-07-08T22:00:00Z,28.9818,-94.9186,2.0,3.29259214,10.44724366,-99999.0,'11111222,11111222,99999999' 
TABS,ioos:station:wmo:42043:1,1998-07-08T22:30:00Z,28.9818,-94.9186,2.0,0.887985152,9.68116212,-99999.0,'11133222,11111222,99999999' 
TABS,ioos:station:wmo:42043:1,1998-07-08T23:00:00Z,28.9818,-94.9186,2.0,3.905118771,8.810454018,-99999.0,'11133222,11111222,99999999' 
TABS,ioos:station:wmo:42043:1,1998-07-08T23:30:00Z,28.9818,-94.9186,2.0,355.5732492,7.773191108,-99999.0,'11133222,11111222,99999999' 
TABS,ioos:station:wmo:42043:1,1998-07-09T00:00:00Z,28.9818,-94.9186,2.0,357.8254714,7.90569415,-99999.0,'11133222,11111222,99999999' 
TABS,ioos:station:wmo:42043:1,1998-07-09T00:30:00Z,28.9818,-94.9186,2.0,358.8695222,7.601480119,-99999.0,'11133222,11111222,99999999' 
TABS,ioos:station:wmo:42043:1,1998-07-09T01:00:00Z,28.9818,-94.9186,2.0,0.000210459,7.9,-99999.0,'11133222,11111222,99999999' 
TABS,ioos:station:wmo:42043:1,1998-07-09T01:30:00Z,28.9818,-94.9186,2.0,354.7480425,8.083940871,-99999.0,'11133222,11111222,99999999' 
TABS,ioos:station:wmo:42043:1,1998-07-09T02:00:00Z,28.9818,-94.9186,2.0,353.9089795,8.387353575,-99999.0,'11133222,11111222,99999999' 
TABS,ioos:station:wmo:42043:1,1998-07-09T02:30:00Z,28.9818,-94.9186,2.0,355.885311,8.361554879,-99999.0,'11133222,11111222,99999999' 
TABS,ioos:station:wmo:42043:1,1998-07-09T03:00:00Z,28.9818,-94.9186,2.0,358.0115773,8.645206764,-99999.0,'11133222,11111222,99999999' 
TABS,ioos:station:wmo:42043:1,1998-07-09T03:30:00Z,28.9818,-94.9186,2.0,356.9117137,8.352131464,-99999.0,'11133222,11111222,99999999' 
TABS,ioos:station:wmo:42043:1,1998-07-09T04:00:00Z,28.9818,-94.9186,2.0,356.9661779,8.501917431,-99999.0,'11133222,11111222,99999999' 
TABS,ioos:station:wmo:42043:1,1998-07-09T04:30:00Z,28.9818,-94.9186,2.0,0.000210459,9.09,-99999.0,'11133222,11111222,99999999' 
TABS,ioos:station:wmo:42043:1,1998-07-09T05:00:00Z,28.9818,-94.9186,2.0,359.0389643,8.941258301,-99999.0,'11133222,11144222,99999999' 
TABS,ioos:station:wmo:42043:1,1998-07-09T05:30:00Z,28.9818,-94.9186,2.0,1.922161923,8.945032141,-99999.0,'11133222,11111222,99999999' 
TABS,ioos:station:wmo:42043:1,1998-07-09T06:00:00Z,28.9818,-94.9186,2.0,3.715490876,9.259460027,-99999.0,'11133222,11111222,99999999' 
TABS,ioos:station:wmo:42043:1,1998-07-09T06:30:00Z,28.9818,-94.9186,2.0,2.060316665,8.345393939,-99999.0,'11133222,11111222,99999999' 
TABS,ioos:station:wmo:42043:1,1998-07-09T07:00:00Z,28.9818,-94.9186,2.0,2.095458124,8.20548597,-99999.0,'11133222,11111222,99999999' 
TABS,ioos:station:wmo:42043:1,1998-07-09T07:30:00Z,28.9818,-94.9186,2.0,0.945597352,9.09123754,-99999.0,'11133222,11111222,99999999' 
TABS,ioos:station:wmo:42043:1,1998-07-09T08:00:00Z,28.9818,-94.9186,2.0,2.834314848,9.101131798,-99999.0,'11133222,11111222,99999999' 
TABS,ioos:station:wmo:42043:1,1998-07-09T08:30:00Z,28.9818,-94.9186,2.0,4.042651712,8.511175007,-99999.0,'11133222,11111222,99999999' 
TABS,ioos:station:wmo:42043:1,1998-07-09T09:00:00Z,28.9818,-94.9186,2.0,3.97269711,8.660808276,-99999.0,'11133222,11111222,99999999' 
TABS,ioos:station:wmo:42043:1,1998-07-09T09:30:00Z,28.9818,-94.9186,2.0,3.141332949,8.212338278,-99999.0,'11133222,11111222,99999999' 
TABS,ioos:station:wmo:42043:1,1998-07-09T10:00:00Z,28.9818,-94.9186,2.0,4.895529678,8.671631911,-99999.0,'11133222,11111222,99999999' 
TABS,ioos:station:wmo:42043:1,1998-07-09T10:30:00Z,28.9818,-94.9186,2.0,3.905118771,8.810454018,-99999.0,'11133222,11111222,99999999' 
TABS,ioos:station:wmo:42043:1,1998-07-09T11:00:00Z,28.9818,-94.9186,2.0,2.174949488,7.90569415,-99999.0,'11133222,11111222,99999999' 
TABS,ioos:station:wmo:42043:1,1998-07-09T11:30:00Z,28.9818,-94.9186,2.0,3.905118771,8.810454018,-99999.0,'11133222,11111222,99999999' 
TABS,ioos:station:wmo:42043:1,1998-07-09T12:00:00Z,28.9818,-94.9186,2.0,8.816103455,8.743294574,-99999.0,'11133222,11111222,99999999' 
TABS,ioos:station:wmo:42043:1,1998-07-09T12:30:00Z,28.9818,-94.9186,2.0,7.97906843,8.572992476,-99999.0,'11133222,11111222,99999999' 
TABS,ioos:station:wmo:42043:1,1998-07-09T13:00:00Z,28.9818,-94.9186,2.0,296.1729802,9.794207472,-99999.0,'11133222,11111222,99999999' 
TABS,ioos:station:wmo:42043:1,1998-07-09T13:30:00Z,28.9818,-94.9186,2.0,304.6801064,7.065161003,-99999.0,'11133222,11111222,99999999' 
TABS,ioos:station:wmo:42043:1,1998-07-09T14:00:00Z,28.9818,-94.9186,2.0,320.2044337,15.12371647,-99999.0,'11111222,11111222,99999999' 
TABS,ioos:station:wmo:42043:1,1998-07-09T14:30:00Z,28.9818,-94.9186,2.0,316.0749308,16.96647577,-99999.0,'11111222,11111222,99999999' 
TABS,ioos:station:wmo:42043:1,1998-07-09T15:00:00Z,28.9818,-94.9186,2.0,306.1890745,15.14106998,-99999.0,'11111222,11111222,99999999' 
TABS,ioos:station:wmo:42043:1,1998-07-09T15:30:00Z,28.9818,-94.9186,2.0,297.3730793,14.5940296,-99999.0,'11111222,11111222,99999999' 
TABS,ioos:station:wmo:42043:1,1998-07-09T16:00:00Z,28.9818,-94.9186,2.0,313.737265,14.4355568,-99999.0,'11111222,11111222,99999999' 
TABS,ioos:station:wmo:42043:1,1998-07-09T16:30:00Z,28.9818,-94.9186,2.0,279.9544701,8.619756377,-99999.0,'11133222,11111222,99999999' 
TABS,ioos:station:wmo:42043:1,1998-07-09T17:00:00Z,28.9818,-94.9186,2.0,72.77365549,53.82445262,-99999.0,'11111222,11111222,99999999' 
TABS,ioos:station:wmo:42043:1,1998-07-09T17:30:00Z,28.9818,-94.9186,2.0,72.50559033,54.52184975,-99999.0,'11111222,11111222,99999999' 
TABS,ioos:station:wmo:42043:1,1998-07-09T18:00:00Z,28.9818,-94.9186,2.0,72.91157745,50.19604466,-99999.0,'11111222,11111222,99999999' 
TABS,ioos:station:wmo:42043:1,1998-07-09T18:30:00Z,28.9818,-94.9186,2.0,75.52697882,51.85562361,-99999.0,'11111222,11111222,99999999' 
TABS,ioos:station:wmo:42043:1,1998-07-09T19:00:00Z,28.9818,-94.9186,2.0,77.54698751,52.49504739,-99999.0,'11111222,11111222,99999999' 
TABS,ioos:station:wmo:42043:1,1998-07-09T19:30:00Z,28.9818,-94.9186,2.0,78.65180755,46.95805788,-99999.0,'11111222,11111222,99999999' 
TABS,ioos:station:wmo:42043:1,1998-07-09T20:00:00Z,28.9818,-94.9186,2.0,81.40616247,44.90416573,-99999.0,'11111222,11111222,99999999' 
TABS,ioos:station:wmo:42043:1,1998-07-09T20:30:00Z,28.9818,-94.9186,2.0,82.70957607,39.95299488,-99999.0,'11111222,11111222,99999999' 
TABS,ioos:station:wmo:42043:1,1998-07-09T21:00:00Z,28.9818,-94.9186,2.0,85.7397278,38.09526217,-99999.0,'11111222,11111222,99999999' 
TABS,ioos:station:wmo:42043:1,1998-07-09T21:30:00Z,28.9818,-94.9186,2.0,86.92050752,36.11214754,-99999.0,'11111222,11111222,99999999' 
TABS,ioos:station:wmo:42043:1,1998-07-09T22:00:00Z,28.9818,-94.9186,2.0,88.90670436,31.44572467,-99999.0,'11111222,11111222,99999999' 
TABS,ioos:station:wmo:42043:1,1998-07-09T22:30:00Z,28.9818,-94.9186,2.0,86.1609423,28.97501855,-99999.0,'11111222,11111222,99999999' 
TABS,ioos:station:wmo:42043:1,1998-07-09T23:00:00Z,28.9818,-94.9186,2.0,89.05461311,27.27371262,-99999.0,'11111222,11111222,99999999' 
TABS,ioos:station:wmo:42043:1,1998-07-09T23:30:00Z,28.9818,-94.9186,2.0,93.06831654,22.23187127,-99999.0,'11111222,11111222,99999999' 
TABS,ioos:station:wmo:42043:1,1998-07-10T00:00:00Z,28.9818,-94.9186,2.0,96.51730302,19.64696669,-99999.0,'11111222,11111222,99999999' 
TABS,ioos:station:wmo:42043:1,1998-07-10T00:30:00Z,28.9818,-94.9186,2.0,100.4927276,16.36363346,-99999.0,'11111222,11111222,99999999' 
TABS,ioos:station:wmo:42043:1,1998-07-10T01:00:00Z,28.9818,-94.9186,2.0,98.86352608,14.47283317,-99999.0,'11111222,11111222,99999999' 
TABS,ioos:station:wmo:42043:1,1998-07-10T01:30:00Z,28.9818,-94.9186,2.0,87.2865969,12.67421003,-99999.0,'11111222,11111222,99999999' 
TABS,ioos:station:wmo:42043:1,1998-07-10T02:00:00Z,28.9818,-94.9186,2.0,69.44400285,12.73056558,-99999.0,'11111222,11111222,99999999' 
TABS,ioos:station:wmo:42043:1,1998-07-10T02:30:00Z,28.9818,-94.9186,2.0,54.93113655,10.37312393,-99999.0,'11111222,11111222,99999999' 
TABS,ioos:station:wmo:42043:1,1998-07-10T03:00:00Z,28.9818,-94.9186,2.0,39.89856008,11.84854843,-99999.0,'11111222,11111222,99999999' 
TABS,ioos:station:wmo:42043:1,1998-07-10T03:30:00Z,28.9818,-94.9186,2.0,33.22864384,15.49327919,-99999.0,'11111222,11111222,99999999' 
TABS,ioos:station:wmo:42043:1,1998-07-10T04:00:00Z,28.9818,-94.9186,2.0,30.7238661,19.24059511,-99999.0,'11111222,11111222,99999999' 